This demonstration page uses our WeatherBlox Daily Observations layout. Learn more.

Left ArrowRight Arrow

44.89941, -97.11507

Hourly Observations for July 12, 2016

Temp ( °F °C ) Dew Point ( °F °C ) Humidity (%) Winds ( mph kmh ) Pressure ( in mb ) Visibility ( mi km ) Precip ( " mm )
12:53 am 00:53 Clear 66 18.9 60 15.6 81 81 WNW 8 13 29.67 1005 10 16 0.00 0.00
1:53 am 01:53 Clear 65 18.3 56 13.3 73 73 W 10 17 29.68 1005 10 16 0.00 0.00
2:53 am 02:53 Clear 62 16.7 56 13.3 80 80 WSW 9 15 29.67 1005 10 16 0.00 0.00
3:53 am 03:53 Clear 62 16.7 54 12.2 75 75 W 10 17 29.66 1004 10 16 0.00 0.00
4:53 am 04:53 Clear 60 15.6 53 11.7 78 78 WSW 13 20 29.67 1005 10 16 0.00 0.00
5:53 am 05:53 Clear 59 15 53 11.7 81 81 SW 9 15 29.68 1005 10 16 0.00 0.00
6:53 am 06:53 Sunny 61 16.1 53 11.7 75 75 SW 12 19 29.69 1005 10 16 0.00 0.00
7:53 am 07:53 Sunny 65 18.3 54 12.2 68 68 SSW 12 19 29.70 1006 10 16 0.00 0.00
8:53 am 08:53 Sunny 68 20 54 12.2 61 61 SSW 18 30 29.72 1007 10 16 0.00 0.00
9:53 am 09:53 Sunny 72 22.2 54 12.2 53 53 SW 18 30 29.73 1007 10 16 0.00 0.00
10:53 am 10:53 Sunny 75 23.9 55 12.8 50 50 SW 23 37 29.75 1007 10 16 0.00 0.00
11:53 am 11:53 Sunny 78 25.6 53 11.7 42 42 WSW 22 35 29.75 1007 10 16 0.00 0.00
12:53 pm 12:53 Sunny 80 26.7 53 11.7 39 39 WSW 25 41 29.74 1007 10 16 0.00 0.00
1:53 pm 13:53 Sunny 82 27.8 51 10.6 34 34 WSW 30 48 29.72 1007 10 16 0.00 0.00
2:53 pm 14:53 Sunny 84 28.9 49 9.4 30 30 WSW 29 46 29.72 1007 10 16 0.00 0.00
3:53 pm 15:53 Sunny 85 29.4 50 10 30 30 WSW 26 43 29.71 1006 10 16 0.00 0.00
4:53 pm 16:53 Sunny 85 29.4 48 8.9 28 28 WSW 22 35 29.70 1006 10 16 0.00 0.00
5:53 pm 17:53 Sunny 85 29.4 48 8.9 28 28 WSW 20 31 29.69 1005 10 16 0.00 0.00
6:53 pm 18:53 Sunny 84 28.9 51 10.6 32 32 WSW 14 22 29.68 1005 10 16 0.00 0.00
7:53 pm 19:53 Mostly Sunny 81 27.2 56 13.3 42 42 SW 10 17 29.68 1005 10 16 0.00 0.00
8:53 pm 20:53 Sunny 74 23.3 59 15 60 60 SW 5 7 29.68 1005 10 16 0.00 0.00
9:53 pm 21:53 Clear 75 23.9 56 13.3 52 52 SW 10 17 29.69 1006 10 16 0.00 0.00
10:53 pm 22:53 Mostly Cloudy 74 23.3 55 12.8 52 52 SSW 10 17 29.70 1006 10 16 0.00 0.00
11:53 pm 23:53 Clear 72 22.2 56 13.3 57 57 SW 12 19 29.72 1006 10 16 0.00 0.00

Powered by AerisWeather